[[{"header":{"parameterUnit":"m.s-1","parameterCategory":1,"la1":30.2991,"la2":30.254,"lo1":-89.0895,"lo2":-89.0444,"dy":0.0017,"dx":0.0017,"nx":28,"ny":28,"refTime":"2025-05-31T09:00:00:Z","depth":0,"parameterNumber":2,"parameterNumberName":"U-component_of_WINDS"},"data":[0,0,0,0,0,0,0,0,0,0,0,0,0,0,0,0,0,0,0,0,0,0,0,0,0,0,0,0,0,0,0,0,0,0,0,0,0,0,0,0,0,0,0,0,0,0,0,0,0,0,0,0,0,0,0,0,0,0,1.7568,1.7569,0,1.768,1.7681,1.7682,1.766,1.7658,1.7656,1.7654,1.7774,1.7779,1.7784,0,0,0,0,0,0,0,0,0,0,0,0,0,1.7339,1.7344,1.7568,1.7569,1.757,1.768,1.7681,1.7683,1.766,1.7658,1.7655,1.7653,1.7772,1.7778,1.7784,0,0,0,0,0,0,0,0,0,0,0,0,0,1.7444,1.7345,1.7567,1.7572,1.7574,1.7679,1.7681,1.7683,1.7661,1.7658,1.7655,1.7652,1.777,1.7777,1.7785,1.7894,0,0,1.7808,1.7812,0,0,0,0,0,0,0,0,1.7438,1.7452,1.757,1.7572,1.7574,1.7653,1.7645,1.7754,1.7662,1.7628,1.7654,1.765,1.7736,1.7746,1.7774,1.79,1.7905,1.7809,1.7814,1.7817,1.7819,0,0,0,0,0,0,0,1.7431,1.7447,1.7612,1.7572,1.7574,1.7571,1.7582,1.7665,1.7698,1.7631,1.7629,1.7643,1.7737,1.7767,1.7777,1.7907,1.7809,1.7816,1.782,1.7823,1.8129,1.8132,0,0,0,0,0,0,1.7421,1.7441,1.7609,1.7615,1.7497,1.7577,1.759,1.7631,1.7697,1.7704,1.7645,1.7641,1.7756,1.7768,1.7781,1.7914,1.7817,1.7824,1.7829,1.8125,1.8129,1.8133,0,0,0,0,0,0,1.7416,1.7436,1.7604,1.7528,1.7549,1.7584,1.763,1.7634,1.7665,1.7708,1.7714,1.767,1.7754,1.777,1.7866,1.7918,1.7828,1.7835,1.8121,1.8127,1.8131,1.8181,0,0,0,0,0,0,1.741,1.7434,1.7475,1.7529,1.7553,1.7686,1.7633,1.7639,1.7677,1.7673,1.7733,1.774,1.7752,1.7855,1.7874,1.7927,1.7841,1.8117,1.8123,1.813,1.8175,1.8187,1.8198,0,0,0,0,0,1.7402,1.7485,1.7477,1.7497,1.7604,1.7689,1.7703,1.7714,1.7682,1.7724,1.7752,1.7738,1.7909,1.7865,1.7886,1.7942,1.8113,1.8122,1.8129,1.8169,1.8185,1.8197,0,0,0,0,0,0,1.7438,1.7492,1.7484,1.7587,1.7633,1.7685,1.7738,1.773,1.7787,1.7781,1.7794,1.7808,1.7906,1.7934,1.7883,1.8052,1.8007,1.8019,1.803,1.8045,1.8056,1.8048,1.7847,0,0,0,0,0,1.7457,1.7519,1.7564,1.7651,1.7675,1.7702,1.7739,1.7744,1.7793,1.7813,1.7848,1.7898,1.7963,1.8005,1.8067,1.8178,1.8192,1.8228,1.8239,1.8248,1.8259,1.8322,1.8338,1.8159,1.8159,1.8159,0,0,1.7499,1.7537,1.7575,1.7659,1.7696,1.7762,1.7719,1.779,1.784,1.7824,1.7917,1.7944,1.8001,1.8105,1.8152,1.8131,1.8312,1.8258,1.8265,1.8272,1.8332,1.8349,1.8364,1.8165,1.8164,1.8163,0,0,1.7609,1.7643,1.7719,1.7757,1.7812,1.7829,1.7848,1.7901,1.7918,1.8011,1.8001,1.8061,1.8172,1.8213,1.8249,1.8375,1.8365,1.8395,1.8455,1.8516,1.853,1.8543,1.8589,1.8606,1.8406,1.8406,1.8406,0,1.7655,1.7752,1.776,1.7833,1.7871,1.7858,1.7937,1.7973,1.8047,1.8074,1.8049,1.8189,1.8226,1.834,1.8371,1.8399,1.8422,1.8389,1.8527,1.854,1.8552,1.8596,1.8614,1.8409,1.8409,1.8408,1.8408,0,1.7806,1.7873,1.7929,1.7998,1.8043,1.8118,1.814,1.8184,1.8185,1.8207,1.8302,1.8346,1.8417,1.8445,1.8447,1.856,1.8545,1.8523,1.8478,1.8572,1.8614,1.8631,1.8414,1.8413,1.8412,1.8411,0,0,1.7942,1.8015,1.8035,1.8067,1.8127,1.8181,1.8256,1.8325,1.8363,1.8414,1.8479,1.8574,1.8554,1.8595,1.8602,1.8655,1.8754,1.8627,1.8628,1.865,1.8883,1.8899,1.8919,1.8747,1.8751,1.8753,1.8878,0,1.8058,1.8189,1.82,1.8319,1.8383,1.8372,1.8438,1.8483,1.8506,1.8564,1.8589,1.8657,1.8625,1.8649,1.8701,1.8731,1.8801,1.8722,1.881,1.8813,1.8797,1.894,1.8958,1.9074,1.8895,1.8897,1.8899,0,1.8211,1.8266,1.8391,1.8443,1.847,1.8529,1.8593,1.8648,1.87,1.8713,1.8758,1.8758,1.8838,1.8789,1.89,1.8846,1.8883,1.8903,1.8908,1.8917,1.8862,1.8955,1.9111,1.9129,1.8925,1.8923,1.8921,0,1.83,1.8404,1.8493,1.852,1.8583,1.8625,1.8653,1.8701,1.8742,1.8799,1.8826,1.8892,1.8928,1.898,1.8999,1.8961,1.911,1.9062,1.9124,1.9124,1.9156,1.9154,1.9322,1.9178,1.9178,1.9178,1.9177,0,1.8429,1.8507,1.8533,1.8588,1.8675,1.8687,1.8773,1.88,1.8843,1.8904,1.8899,1.8957,1.8978,1.904,1.9055,1.9145,1.9162,1.9176,1.9179,1.9177,1.9175,1.9202,1.9195,1.9182,1.9181,1.9181,1.918,0,1.8543,1.8564,1.866,1.8711,1.8725,1.8787,1.8832,1.8886,1.8906,1.8984,1.9003,1.9037,1.911,1.9133,1.9221,1.9231,1.9338,1.9333,1.932,1.9321,1.9381,1.9376,1.9573,1.96,1.9438,1.9439,1.944,0,1.8625,1.8684,1.8741,1.878,1.881,1.8874,1.8915,1.893,1.8973,1.9037,1.9084,1.9155,1.9213,1.933,1.9364,1.9432,1.943,1.9494,1.944,1.9436,1.9433,1.9429,1.9436,1.9505,1.9507,1.9508,1.9509,0,1.8768,1.8775,1.8834,1.8897,1.8946,1.8997,1.9046,1.9079,1.9101,1.9151,1.9224,1.9269,1.9358,1.943,1.9499,1.953,1.9525,1.9526,1.9544,1.9543,1.9533,1.954,1.9349,1.9521,1.952,1.9519,1.9518,1.9518,1.8869,1.8922,1.897,1.9036,1.9074,1.912,1.9173,1.92,1.9261,1.9334,1.9339,1.9419,1.9471,1.9563,1.9597,1.9661,1.9643,1.9669,1.9676,1.9683,1.9688,1.9521,1.9674,1.9674,1.9673,1.9673,1.9673,0,1.9014,1.9044,1.9104,1.9172,1.9225,1.9212,1.9266,1.9311,1.9381,1.9429,1.9486,1.9571,1.9641,1.968,1.975,1.9794,1.9793,1.9812,1.9809,1.9817,1.9699,1.9677,1.9811,1.9811,1.9811,1.9811,1.9811,1.9811,1.9095,1.9183,1.9197,1.9304,1.9335,1.9411,1.9443,1.9487,1.9525,1.9619,1.9677,1.9701,1.9746,1.9819,1.9883,1.9893,1.992,1.9941,1.995,1.9839,1.9825,1.9812,1.9791,1.9947,1.9947,2.0062,2.0063,2.0064]},{"header":{"parameterUnit":"m.s-1","parameterCategory":1,"la1":30.2991,"la2":30.254,"lo1":-89.0895,"lo2":-89.0444,"dy":0.0017,"dx":0.0017,"nx":28,"ny":28,"refTime":"2025-05-31T09:00:00:Z","depth":0,"parameterNumber":3,"parameterNumberName":"V-component_of_WINDS"},"data":[0,0,0,0,0,0,0,0,0,0,0,0,0,0,0,0,0,0,0,0,0,0,0,0,0,0,0,0,0,0,0,0,0,0,0,0,0,0,0,0,0,0,0,0,0,0,0,0,0,0,0,0,0,0,0,0,0,0,-0.7233,-0.7233,0,-0.7217,-0.7217,-0.7217,-0.7223,-0.7223,-0.7223,-0.7224,-0.7205,-0.7205,-0.7204,0,0,0,0,0,0,0,0,0,0,0,0,0,-0.7265,-0.7265,-0.7233,-0.7233,-0.7233,-0.7217,-0.7217,-0.7217,-0.7222,-0.7223,-0.7223,-0.7224,-0.7206,-0.7205,-0.7204,0,0,0,0,0,0,0,0,0,0,0,0,0,-0.7251,-0.7264,-0.7233,-0.7234,-0.7234,-0.7218,-0.7217,-0.7217,-0.7222,-0.7223,-0.7223,-0.7224,-0.7206,-0.7205,-0.7204,-0.7186,0,0,-0.72,-0.7199,0,0,0,0,0,0,0,0,-0.7251,-0.7249,-0.7234,-0.7234,-0.7233,-0.7223,-0.7222,-0.7206,-0.7222,-0.7227,-0.7224,-0.7224,-0.7211,-0.7209,-0.7205,-0.7185,-0.7184,-0.72,-0.7199,-0.7199,-0.7198,0,0,0,0,0,0,0,-0.7252,-0.725,-0.7227,-0.7234,-0.7233,-0.7234,-0.7232,-0.7219,-0.7216,-0.7226,-0.7227,-0.7225,-0.7211,-0.7206,-0.7204,-0.7184,-0.72,-0.7199,-0.7198,-0.7198,-0.7146,-0.7145,0,0,0,0,0,0,-0.7254,-0.7251,-0.7227,-0.7226,-0.7244,-0.7233,-0.7231,-0.7225,-0.7216,-0.7215,-0.7224,-0.7225,-0.7208,-0.7206,-0.7204,-0.718,-0.7199,-0.7197,-0.7197,-0.7147,-0.7146,-0.7145,0,0,0,0,0,0,-0.7254,-0.7252,-0.7228,-0.7239,-0.7236,-0.7232,-0.7225,-0.7225,-0.722,-0.7215,-0.7214,-0.722,-0.7208,-0.7206,-0.719,-0.718,-0.7197,-0.7196,-0.7147,-0.7146,-0.7145,-0.7135,0,0,0,0,0,0,-0.7255,-0.7252,-0.7246,-0.7239,-0.7235,-0.7215,-0.7225,-0.7224,-0.7218,-0.7219,-0.7211,-0.721,-0.7208,-0.7192,-0.7189,-0.7179,-0.7195,-0.7148,-0.7147,-0.7146,-0.7136,-0.7133,-0.7131,0,0,0,0,0,-0.7256,-0.7243,-0.7245,-0.7242,-0.7227,-0.7215,-0.7212,-0.7212,-0.7218,-0.7211,-0.7207,-0.721,-0.7182,-0.719,-0.7187,-0.7176,-0.7149,-0.7147,-0.7146,-0.7137,-0.7134,-0.7131,0,0,0,0,0,0,-0.7249,-0.7242,-0.7245,-0.7229,-0.7222,-0.7215,-0.7207,-0.7209,-0.72,-0.7201,-0.72,-0.7198,-0.7181,-0.7178,-0.7187,-0.7157,-0.7166,-0.7164,-0.716,-0.7157,-0.7155,-0.7156,-0.7194,0,0,0,0,0,-0.7245,-0.7236,-0.7231,-0.7217,-0.7214,-0.7211,-0.7205,-0.7205,-0.7198,-0.7195,-0.719,-0.7182,-0.7172,-0.7165,-0.7155,-0.7136,-0.7133,-0.7127,-0.7124,-0.7123,-0.712,-0.7108,-0.7105,-0.714,-0.714,-0.714,0,0,-0.7238,-0.7233,-0.7228,-0.7216,-0.7211,-0.72,-0.7209,-0.7197,-0.7189,-0.7193,-0.7178,-0.7174,-0.7165,-0.7147,-0.7139,-0.7143,-0.711,-0.7121,-0.7119,-0.7118,-0.7106,-0.7103,-0.71,-0.7139,-0.7139,-0.714,0,0,-0.7219,-0.7215,-0.7203,-0.7197,-0.719,-0.7188,-0.7184,-0.7177,-0.7175,-0.7159,-0.7162,-0.7152,-0.7134,-0.7127,-0.7121,-0.7098,-0.71,-0.7095,-0.7082,-0.707,-0.7068,-0.7065,-0.7055,-0.7052,-0.7093,-0.7093,-0.7093,0,-0.721,-0.7195,-0.7196,-0.7184,-0.7178,-0.7182,-0.7168,-0.7163,-0.7152,-0.7147,-0.7152,-0.7129,-0.7123,-0.7103,-0.7097,-0.7093,-0.7088,-0.7095,-0.7068,-0.7066,-0.7063,-0.7053,-0.705,-0.7092,-0.7092,-0.7092,-0.7092,0,-0.7184,-0.7174,-0.7165,-0.7154,-0.7147,-0.7134,-0.7132,-0.7125,-0.7125,-0.7122,-0.7105,-0.7099,-0.7087,-0.7082,-0.7083,-0.7061,-0.7064,-0.7069,-0.7077,-0.7059,-0.705,-0.7046,-0.7091,-0.7091,-0.7091,-0.7092,0,0,-0.716,-0.7149,-0.7146,-0.714,-0.7131,-0.7123,-0.711,-0.7098,-0.7091,-0.7083,-0.7071,-0.7055,-0.7059,-0.7053,-0.7052,-0.7042,-0.7022,-0.7048,-0.7047,-0.7041,-0.6995,-0.699,-0.6986,-0.7023,-0.7023,-0.7022,-0.6995,0,-0.7138,-0.7116,-0.7116,-0.7095,-0.7084,-0.7087,-0.7076,-0.7068,-0.7065,-0.7054,-0.705,-0.7039,-0.7046,-0.7041,-0.7031,-0.7026,-0.7012,-0.7029,-0.701,-0.701,-0.7011,-0.6982,-0.6977,-0.6952,-0.6992,-0.6991,-0.6991,0,-0.7111,-0.7102,-0.708,-0.7071,-0.7067,-0.7056,-0.7045,-0.7035,-0.7027,-0.7025,-0.7017,-0.7018,-0.7003,-0.7013,-0.6991,-0.7002,-0.6995,-0.6991,-0.699,-0.6987,-0.6998,-0.6976,-0.6944,-0.694,-0.6986,-0.6986,-0.6987,0,-0.7093,-0.7075,-0.7059,-0.7055,-0.7045,-0.7037,-0.7033,-0.7025,-0.7017,-0.7007,-0.7002,-0.699,-0.6983,-0.6973,-0.697,-0.6978,-0.6948,-0.6958,-0.6944,-0.6944,-0.6937,-0.6937,-0.6901,-0.6935,-0.6935,-0.6935,-0.6935,0,-0.7068,-0.7054,-0.7051,-0.7041,-0.7025,-0.7024,-0.7008,-0.7004,-0.6996,-0.6984,-0.6987,-0.6975,-0.6973,-0.6961,-0.6958,-0.6939,-0.6937,-0.6934,-0.6933,-0.6932,-0.6933,-0.6926,-0.6927,-0.6934,-0.6934,-0.6935,-0.6935,0,-0.7044,-0.7042,-0.7025,-0.7017,-0.7014,-0.7003,-0.6995,-0.6985,-0.6982,-0.6967,-0.6963,-0.6958,-0.6943,-0.694,-0.6923,-0.6921,-0.6898,-0.69,-0.6901,-0.69,-0.6886,-0.6887,-0.6844,-0.6837,-0.6877,-0.6877,-0.6876,0,-0.7028,-0.7017,-0.7008,-0.7001,-0.6996,-0.6984,-0.6976,-0.6975,-0.6966,-0.6955,-0.6945,-0.6931,-0.692,-0.6897,-0.689,-0.6877,-0.6877,-0.6863,-0.6875,-0.6874,-0.6874,-0.6874,-0.6872,-0.686,-0.686,-0.6859,-0.6859,0,-0.6999,-0.6998,-0.6987,-0.6976,-0.6966,-0.6957,-0.6948,-0.6942,-0.6939,-0.6929,-0.6915,-0.6906,-0.6888,-0.6873,-0.6859,-0.6853,-0.6855,-0.6855,-0.6851,-0.685,-0.685,-0.6847,-0.6893,-0.6856,-0.6856,-0.6857,-0.6857,-0.6857,-0.6977,-0.6967,-0.6958,-0.6946,-0.6939,-0.693,-0.692,-0.6915,-0.6903,-0.6889,-0.6889,-0.6872,-0.6862,-0.6843,-0.6837,-0.6823,-0.6827,-0.6821,-0.6819,-0.6817,-0.6815,-0.6854,-0.682,-0.6821,-0.6821,-0.6821,-0.6821,0,-0.6946,-0.6941,-0.6929,-0.6916,-0.6906,-0.691,-0.69,-0.689,-0.6876,-0.6867,-0.6855,-0.6838,-0.6823,-0.6815,-0.6801,-0.6791,-0.6791,-0.6787,-0.6786,-0.6784,-0.6813,-0.6818,-0.6787,-0.6787,-0.6787,-0.6787,-0.6787,-0.6787,-0.6929,-0.6911,-0.6909,-0.6887,-0.6882,-0.6866,-0.6859,-0.6851,-0.6843,-0.6823,-0.6811,-0.6807,-0.6798,-0.6782,-0.6768,-0.6766,-0.6759,-0.6754,-0.6753,-0.6779,-0.6783,-0.6786,-0.679,-0.6754,-0.6753,-0.6725,-0.6724,-0.6724]}]]